NORTHERN QUEENS  -  Heat Advisory Heat Advisory     Flash Flood Watch Flash Flood Watch     Rip Current Statement Rip Current Statement        SOUTHERN QUEENS  -  Heat Advisory Heat Advisory     Flash Flood Watch Flash Flood Watch     Rip Current Statement Rip Current Statement        NORTHERN NASSAU  -  Flash Flood Watch Flash Flood Watch     Rip Current Statement Rip Current Statement        SOUTHERN NASSAU  -  Flash Flood Watch Flash Flood Watch     Rip Current Statement Rip Current Statement        NORTHEAST SUFFOLK  -  Rip Current Statement Rip Current Statement        NORTHWEST SUFFOLK  -  Rip Current Statement Rip Current Statement        SOUTHEAST SUFFOLK  -  Rip Current Statement Rip Current Statement        SOUTHWEST SUFFOLK  -  Rip Current Statement Rip Current Statement      

Active alerts

Northern Queens
  Details for Northern Queens Heat Advisory  +2 additional alerts
Southern Queens
  Details for Southern Queens Heat Advisory  +2 additional alerts
Northern Nassau
  Details for Northern Nassau Flash Flood Watch  +1 additional alert
Southern Nassau
  Details for Southern Nassau Flash Flood Watch  +1 additional alert
Northwest Suffolk
  Details for Northwest Suffolk Rip Current Statement
Southwest Suffolk
  Details for Southwest Suffolk Rip Current Statement
Northeast Suffolk
  Details for Northeast Suffolk Rip Current Statement
Southeast Suffolk
  Details for Southeast Suffolk Rip Current Statement


WXM80 ListenWXM80 Stop

You find our weather info also at:

UK Metoffice

WeatherCloud

Weather Underground

Northeastern Weather Network

AWEKAS

Citizen Weather Observer Program (CWOP)

HAMweather, WeatherForYou, PWS Weather


Weather Underground History page Text

Daily Summary for March 22, 2017 Units:  Both    English   Metric
« Previous Day
Next Day »
Daily Weekly Monthly Yearly Custom
  High: Low: Average:
Temperature: 45.3 °F /  7.4 °C 25.1 °F /  -3.8 °C 36.1 °F /  2.3 °C
Dew Point: 32.6 °F /  0.3 °C 2.4 °F /  -16.4 °C 16.3 °F /  -8.7 °C
Humidity: 62 % 30 % 45 %
Wind Speed: 17.8 mph /  28.6 km/h - 7.1 mph /  11.4 km/h
Wind Gust: 27.6 mph /  44.4 km/h - -
Wind:- - WNW
Pressure: 30.40 in /  1029.3 hPa 29.81 in /  1009.4 hPa -
Precipitation: 0.00 in /  0 mm    
Historical Graphs
 
 
Tabular Data for March 22, 2017
Time Temperature Dew Point Pressure Wind Wind Speed Wind Gust Humidity Rainfall Rate (Hourly)
00:01 45.3 °F /  7.4 °C 32.6 °F /  0.3 °C 29.82 in /  1009.7 hPa Calm     61 % 0.00 in /  0 mm
00:06 45.0 °F /  7.2 °C 32.3 °F /  0.2 °C 29.82 in /  1009.7 hPa Calm     61 % 0.00 in /  0 mm
00:11 44.7 °F /  7.1 °C 32.1 °F /  0.1 °C 29.82 in /  1009.7 hPa Calm     61 % 0.00 in /  0 mm
00:12 44.7 °F /  7.1 °C 32.1 °F /  0.1 °C 29.82 in /  1009.7 hPa Calm     61 % 0.00 in /  0 mm
00:17 44.5 °F /  6.9 °C 31.9 °F /  -0.1 °C 29.82 in /  1009.7 hPa Calm     61 % 0.00 in /  0 mm
00:22 44.3 °F /  6.8 °C 31.3 °F /  -0.4 °C 29.82 in /  1009.7 hPa Calm     60 % 0.00 in /  0 mm
00:27 44.3 °F /  6.8 °C 31.7 °F /  -0.2 °C 29.82 in /  1009.7 hPa Calm     61 % 0.00 in /  0 mm
00:28 44.3 °F /  6.8 °C 31.7 °F /  -0.2 °C 29.83 in /  1010 hPa Calm     61 % 0.00 in /  0 mm
00:33 44.3 °F /  6.8 °C 31.7 °F /  -0.2 °C 29.82 in /  1009.7 hPa Calm     61 % 0.00 in /  0 mm
00:38 44.3 °F /  6.8 °C 31.7 °F /  -0.2 °C 29.83 in /  1010 hPa Calm     61 % 0.00 in /  0 mm
00:43 44.2 °F /  6.8 °C 31.6 °F /  -0.2 °C 29.83 in /  1010 hPa Calm     61 % 0.00 in /  0 mm
00:48 44.1 °F /  6.7 °C 31.5 °F /  -0.3 °C 29.83 in /  1010 hPa Calm     61 % 0.00 in /  0 mm
00:53 43.9 °F /  6.6 °C 31.7 °F /  -0.2 °C 29.83 in /  1010 hPa Calm   1.2 mph /  1.9 km/h 62 % 0.00 in /  0 mm
00:58 43.8 °F /  6.6 °C 31.6 °F /  -0.2 °C 29.83 in /  1010 hPa WNW 0.6 mph /  1 km/h 1.2 mph /  1.9 km/h 62 % 0.00 in /  0 mm
01:03 43.7 °F /  6.5 °C 31.5 °F /  -0.3 °C 29.83 in /  1010 hPa Calm     62 % 0.00 in /  0 mm
01:08 43.5 °F /  6.4 °C 30.9 °F /  -0.6 °C 29.83 in /  1010 hPa Calm     61 % 0.00 in /  0 mm
01:13 43.4 °F /  6.3 °C 30.8 °F /  -0.7 °C 29.83 in /  1010 hPa WNW 0.1 mph /  0.2 km/h 1.2 mph /  1.9 km/h 61 % 0.00 in /  0 mm
01:18 43.4 °F /  6.3 °C 30.8 °F /  -0.7 °C 29.83 in /  1010 hPa Calm     61 % 0.00 in /  0 mm
01:23 43.2 °F /  6.2 °C 30.2 °F /  -1 °C 29.83 in /  1010 hPa Calm   1.2 mph /  1.9 km/h 60 % 0.00 in /  0 mm
01:28 43.0 °F /  6.1 °C 30.1 °F /  -1.1 °C 29.83 in /  1010 hPa Calm     60 % 0.00 in /  0 mm
01:33 42.8 °F /  6 °C 29.9 °F /  -1.2 °C 29.83 in /  1010 hPa Calm   1.2 mph /  1.9 km/h 60 % 0.00 in /  0 mm
01:38 42.7 °F /  5.9 °C 29.8 °F /  -1.2 °C 29.82 in /  1009.7 hPa WNW 0.2 mph /  0.3 km/h 1.2 mph /  1.9 km/h 60 % 0.00 in /  0 mm
01:43 42.5 °F /  5.8 °C 29.6 °F /  -1.3 °C 29.82 in /  1009.7 hPa WNW 0.1 mph /  0.2 km/h 1.2 mph /  1.9 km/h 60 % 0.00 in /  0 mm
01:48 42.2 °F /  5.7 °C 29.7 °F /  -1.3 °C 29.82 in /  1009.7 hPa WNW 1.0 mph /  1.6 km/h 2.3 mph /  3.7 km/h 61 % 0.00 in /  0 mm
01:53 42.0 °F /  5.6 °C 29.5 °F /  -1.4 °C 29.82 in /  1009.7 hPa WNW 0.6 mph /  1 km/h 2.3 mph /  3.7 km/h 61 % 0.00 in /  0 mm
01:58 41.8 °F /  5.4 °C 29.7 °F /  -1.3 °C 29.82 in /  1009.7 hPa WNW 0.9 mph /  1.4 km/h 2.3 mph /  3.7 km/h 62 % 0.00 in /  0 mm
02:03 41.7 °F /  5.4 °C 29.6 °F /  -1.3 °C 29.82 in /  1009.7 hPa WNW 0.6 mph /  1 km/h 1.2 mph /  1.9 km/h 62 % 0.00 in /  0 mm
02:08 41.5 °F /  5.3 °C 29.0 °F /  -1.7 °C 29.82 in /  1009.7 hPa WNW 0.6 mph /  1 km/h 2.3 mph /  3.7 km/h 61 % 0.00 in /  0 mm
02:13 41.2 °F /  5.1 °C 28.8 °F /  -1.8 °C 29.82 in /  1009.7 hPa WNW 1.0 mph /  1.6 km/h 2.3 mph /  3.7 km/h 61 % 0.00 in /  0 mm
02:18 40.9 °F /  4.9 °C 28.9 °F /  -1.7 °C 29.82 in /  1009.7 hPa WNW 0.4 mph /  0.6 km/h 1.2 mph /  1.9 km/h 62 % 0.00 in /  0 mm
02:20 40.9 °F /  4.9 °C 28.9 °F /  -1.7 °C 29.82 in /  1009.7 hPa WNW 0.2 mph /  0.3 km/h 2.0 mph /  3.2 km/h 62 % 0.00 in /  0 mm
02:25 40.8 °F /  4.9 °C 28.4 °F /  -2 °C 29.81 in /  1009.4 hPa West 0.5 mph /  0.8 km/h 2.0 mph /  3.2 km/h 61 % 0.00 in /  0 mm
02:30 40.7 °F /  4.8 °C 27.9 °F /  -2.3 °C 29.81 in /  1009.4 hPa West 0.4 mph /  0.6 km/h 1.2 mph /  1.9 km/h 60 % 0.00 in /  0 mm
02:35 40.7 °F /  4.8 °C 27.5 °F /  -2.5 °C 29.81 in /  1009.4 hPa West 1.5 mph /  2.4 km/h 2.0 mph /  3.2 km/h 59 % 0.00 in /  0 mm
02:40 40.6 °F /  4.8 °C 27.8 °F /  -2.3 °C 29.81 in /  1009.4 hPa West 0.5 mph /  0.8 km/h 2.3 mph /  3.7 km/h 60 % 0.00 in /  0 mm
02:45 40.5 °F /  4.7 °C 28.1 °F /  -2.2 °C 29.82 in /  1009.7 hPa West 1.1 mph /  1.8 km/h 3.5 mph /  5.6 km/h 61 % 0.00 in /  0 mm
02:50 40.4 °F /  4.7 °C 27.6 °F /  -2.4 °C 29.81 in /  1009.4 hPa WSW 2.1 mph /  3.4 km/h 4.6 mph /  7.4 km/h 60 % 0.00 in /  0 mm
02:55 40.3 °F /  4.6 °C 26.7 °F /  -2.9 °C 29.81 in /  1009.4 hPa West 0.8 mph /  1.3 km/h 3.5 mph /  5.6 km/h 58 % 0.00 in /  0 mm
03:01 40.5 °F /  4.7 °C 25.6 °F /  -3.6 °C 29.81 in /  1009.4 hPa WNW 2.1 mph /  3.4 km/h 5.8 mph /  9.3 km/h 55 % 0.00 in /  0 mm
03:06 40.9 °F /  4.9 °C 26.0 °F /  -3.3 °C 29.81 in /  1009.4 hPa West 1.9 mph /  3.1 km/h 3.5 mph /  5.6 km/h 55 % 0.00 in /  0 mm
03:11 41.1 °F /  5.1 °C 26.1 °F /  -3.3 °C 29.81 in /  1009.4 hPa WNW 0.6 mph /  1 km/h 3.5 mph /  5.6 km/h 55 % 0.00 in /  0 mm
03:16 41.6 °F /  5.3 °C 26.2 °F /  -3.2 °C 29.81 in /  1009.4 hPa West 1.1 mph /  1.8 km/h 3.5 mph /  5.6 km/h 54 % 0.00 in /  0 mm
03:21 41.9 °F /  5.5 °C 26.0 °F /  -3.3 °C 29.82 in /  1009.7 hPa WSW 4.5 mph /  7.2 km/h 5.8 mph /  9.3 km/h 53 % 0.00 in /  0 mm
03:26 42.4 °F /  5.8 °C 26.0 °F /  -3.3 °C 29.81 in /  1009.4 hPa West 3.6 mph /  5.8 km/h 4.6 mph /  7.4 km/h 52 % 0.00 in /  0 mm
03:31 43.0 °F /  6.1 °C 25.1 °F /  -3.8 °C 29.82 in /  1009.7 hPa West 4.9 mph /  7.9 km/h 9.2 mph /  14.8 km/h 49 % 0.00 in /  0 mm
03:36 43.6 °F /  6.4 °C 25.7 °F /  -3.5 °C 29.82 in /  1009.7 hPa WSW 5.1 mph /  8.2 km/h 11.5 mph /  18.5 km/h 49 % 0.00 in /  0 mm
03:41 43.8 °F /  6.6 °C 25.9 °F /  -3.4 °C 29.82 in /  1009.7 hPa WNW 3.9 mph /  6.3 km/h 7.0 mph /  11.3 km/h 49 % 0.00 in /  0 mm
03:46 44.0 °F /  6.7 °C 26.0 °F /  -3.3 °C 29.82 in /  1009.7 hPa NW 2.8 mph /  4.5 km/h 8.1 mph /  13 km/h 49 % 0.00 in /  0 mm
03:51 44.1 °F /  6.7 °C 26.1 °F /  -3.3 °C 29.82 in /  1009.7 hPa West 4.6 mph /  7.4 km/h 10.4 mph /  16.7 km/h 49 % 0.00 in /  0 mm
03:56 44.1 °F /  6.7 °C 27.1 °F /  -2.7 °C 29.82 in /  1009.7 hPa WNW 7.5 mph /  12.1 km/h 11.5 mph /  18.5 km/h 51 % 0.00 in /  0 mm
04:01 44.1 °F /  6.7 °C 27.6 °F /  -2.4 °C 29.82 in /  1009.7 hPa West 6.6 mph /  10.6 km/h 11.5 mph /  18.5 km/h 52 % 0.00 in /  0 mm
04:06 44.0 °F /  6.7 °C 27.5 °F /  -2.5 °C 29.83 in /  1010 hPa NW 4.4 mph /  7.1 km/h 8.1 mph /  13 km/h 52 % 0.00 in /  0 mm
04:11 43.9 °F /  6.6 °C 27.9 °F /  -2.3 °C 29.83 in /  1010 hPa NW 4.8 mph /  7.7 km/h 9.2 mph /  14.8 km/h 53 % 0.00 in /  0 mm
04:16 43.8 °F /  6.6 °C 28.2 °F /  -2.1 °C 29.83 in /  1010 hPa WNW 3.2 mph /  5.1 km/h 9.2 mph /  14.8 km/h 54 % 0.00 in /  0 mm
04:21 43.7 °F /  6.5 °C 28.1 °F /  -2.2 °C 29.82 in /  1009.7 hPa West 4.0 mph /  6.4 km/h 9.0 mph /  14.5 km/h 54 % 0.00 in /  0 mm
04:26 43.6 °F /  6.4 °C 28.0 °F /  -2.2 °C 29.83 in /  1010 hPa NW 3.5 mph /  5.6 km/h 9.2 mph /  14.8 km/h 54 % 0.00 in /  0 mm
04:31 43.5 °F /  6.4 °C 28.4 °F /  -2 °C 29.83 in /  1010 hPa NW 3.0 mph /  4.8 km/h 9.2 mph /  14.8 km/h 55 % 0.00 in /  0 mm
04:36 43.4 °F /  6.3 °C 28.7 °F /  -1.8 °C 29.83 in /  1010 hPa WSW 6.1 mph /  9.8 km/h 10.4 mph /  16.7 km/h 56 % 0.00 in /  0 mm
04:41 43.3 °F /  6.3 °C 28.2 °F /  -2.1 °C 29.83 in /  1010 hPa West 3.7 mph /  6 km/h 12.7 mph /  20.4 km/h 55 % 0.00 in /  0 mm
04:47 43.1 °F /  6.2 °C 28.5 °F /  -1.9 °C 29.83 in /  1010 hPa WNW 4.5 mph /  7.2 km/h 15.0 mph /  24.1 km/h 56 % 0.00 in /  0 mm
04:52 43.0 °F /  6.1 °C 27.9 °F /  -2.3 °C 29.83 in /  1010 hPa West 5.9 mph /  9.5 km/h 11.5 mph /  18.5 km/h 55 % 0.00 in /  0 mm
04:57 42.9 °F /  6.1 °C 27.8 °F /  -2.3 °C 29.83 in /  1010 hPa NW 5.5 mph /  8.9 km/h 7.0 mph /  11.3 km/h 55 % 0.00 in /  0 mm
05:02 42.7 °F /  5.9 °C 28.1 °F /  -2.2 °C 29.84 in /  1010.4 hPa WSW 5.5 mph /  8.9 km/h 15.0 mph /  24.1 km/h 56 % 0.00 in /  0 mm
05:07 42.6 °F /  5.9 °C 28.0 °F /  -2.2 °C 29.84 in /  1010.4 hPa WNW 7.0 mph /  11.3 km/h 13.8 mph /  22.2 km/h 56 % 0.00 in /  0 mm
05:12 42.4 °F /  5.8 °C 27.8 °F /  -2.3 °C 29.85 in /  1010.7 hPa West 5.2 mph /  8.4 km/h 11.5 mph /  18.5 km/h 56 % 0.00 in /  0 mm
05:17 42.2 °F /  5.7 °C 26.7 °F /  -2.9 °C 29.85 in /  1010.7 hPa WNW 7.8 mph /  12.6 km/h 17.3 mph /  27.8 km/h 54 % 0.00 in /  0 mm
05:22 42.0 °F /  5.6 °C 26.5 °F /  -3.1 °C 29.85 in /  1010.7 hPa WSW 6.8 mph /  10.9 km/h 15.0 mph /  24.1 km/h 54 % 0.00 in /  0 mm
05:27 41.8 °F /  5.4 °C 27.2 °F /  -2.7 °C 29.85 in /  1010.7 hPa NW 8.9 mph /  14.3 km/h 13.8 mph /  22.2 km/h 56 % 0.00 in /  0 mm
05:32 41.5 °F /  5.3 °C 27.4 °F /  -2.6 °C 29.86 in /  1011.1 hPa NW 9.0 mph /  14.5 km/h 18.4 mph /  29.6 km/h 57 % 0.00 in /  0 mm
05:37 41.2 °F /  5.1 °C 26.7 °F /  -2.9 °C 29.86 in /  1011.1 hPa North 7.5 mph /  12.1 km/h 12.7 mph /  20.4 km/h 56 % 0.00 in /  0 mm
05:42 41.0 °F /  5 °C 26.1 °F /  -3.3 °C 29.87 in /  1011.4 hPa WNW 11.0 mph /  17.7 km/h 17.3 mph /  27.8 km/h 55 % 0.00 in /  0 mm
05:47 40.8 °F /  4.9 °C 25.9 °F /  -3.4 °C 29.87 in /  1011.4 hPa WNW 6.1 mph /  9.8 km/h 20.0 mph /  32.2 km/h 55 % 0.00 in /  0 mm
05:52 40.6 °F /  4.8 °C 25.2 °F /  -3.8 °C 29.88 in /  1011.7 hPa West 11.7 mph /  18.8 km/h 21.9 mph /  35.2 km/h 54 % 0.00 in /  0 mm
05:57 40.3 °F /  4.6 °C 24.5 °F /  -4.2 °C 29.88 in /  1011.7 hPa WNW 12.7 mph /  20.4 km/h 24.2 mph /  38.9 km/h 53 % 0.00 in /  0 mm
06:02 40.1 °F /  4.5 °C 24.8 °F /  -4 °C 29.88 in /  1011.7 hPa West 5.7 mph /  9.2 km/h 11.5 mph /  18.5 km/h 54 % 0.00 in /  0 mm
06:07 40.0 °F /  4.4 °C 24.7 °F /  -4.1 °C 29.89 in /  1012.1 hPa NW 4.0 mph /  6.4 km/h 4.0 mph /  6.4 km/h 54 % 0.00 in /  0 mm
06:12 39.7 °F /  4.3 °C 24.8 °F /  -4 °C 29.90 in /  1012.4 hPa WNW 8.8 mph /  14.2 km/h 13.8 mph /  22.2 km/h 55 % 0.00 in /  0 mm
06:17 39.5 °F /  4.2 °C 24.2 °F /  -4.3 °C 29.90 in /  1012.4 hPa WNW 9.1 mph /  14.6 km/h 15.0 mph /  24.1 km/h 54 % 0.00 in /  0 mm
06:22 39.3 °F /  4.1 °C 24.5 °F /  -4.2 °C 29.91 in /  1012.8 hPa WNW 11.4 mph /  18.3 km/h 16.1 mph /  25.9 km/h 55 % 0.00 in /  0 mm
06:27 39.2 °F /  4 °C 24.4 °F /  -4.2 °C 29.91 in /  1012.8 hPa NNW 8.6 mph /  13.8 km/h 16.1 mph /  25.9 km/h 55 % 0.00 in /  0 mm
06:32 39.0 °F /  3.9 °C 24.6 °F /  -4.1 °C 29.90 in /  1012.4 hPa West 9.2 mph /  14.8 km/h 16.0 mph /  25.7 km/h 56 % 0.00 in /  0 mm
06:37 38.8 °F /  3.8 °C 24.9 °F /  -3.9 °C 29.91 in /  1012.8 hPa WNW 8.8 mph /  14.2 km/h 16.0 mph /  25.7 km/h 57 % 0.00 in /  0 mm
06:42 38.7 °F /  3.7 °C 24.8 °F /  -4 °C 29.91 in /  1012.8 hPa WNW 8.0 mph /  12.9 km/h 12.7 mph /  20.4 km/h 57 % 0.00 in /  0 mm
06:47 38.6 °F /  3.7 °C 24.7 °F /  -4.1 °C 29.91 in /  1012.8 hPa West 4.0 mph /  6.4 km/h 10.4 mph /  16.7 km/h 57 % 0.00 in /  0 mm
06:52 38.5 °F /  3.6 °C 24.6 °F /  -4.1 °C 29.91 in /  1012.8 hPa WNW 6.3 mph /  10.1 km/h 10.4 mph /  16.7 km/h 57 % 0.00 in /  0 mm
06:57 38.4 °F /  3.6 °C 24.5 °F /  -4.2 °C 29.91 in /  1012.8 hPa West 5.8 mph /  9.3 km/h 13.8 mph /  22.2 km/h 57 % 0.00 in /  0 mm
07:02 38.4 °F /  3.6 °C 24.9 °F /  -3.9 °C 29.91 in /  1012.8 hPa WNW 6.1 mph /  9.8 km/h 16.1 mph /  25.9 km/h 58 % 0.00 in /  0 mm
07:07 38.3 °F /  3.5 °C 24.8 °F /  -4 °C 29.91 in /  1012.8 hPa WNW 6.6 mph /  10.6 km/h 10.4 mph /  16.7 km/h 58 % 0.00 in /  0 mm
07:12 38.3 °F /  3.5 °C 24.4 °F /  -4.2 °C 29.91 in /  1012.8 hPa West 6.8 mph /  10.9 km/h 15.0 mph /  24.1 km/h 57 % 0.00 in /  0 mm
07:17 38.3 °F /  3.5 °C 24.8 °F /  -4 °C 29.92 in /  1013.1 hPa WNW 6.8 mph /  10.9 km/h 12.7 mph /  20.4 km/h 58 % 0.00 in /  0 mm
07:22 38.3 °F /  3.5 °C 24.8 °F /  -4 °C 29.92 in /  1013.1 hPa NW 10.6 mph /  17.1 km/h 12.7 mph /  20.4 km/h 58 % 0.00 in /  0 mm
07:27 38.3 °F /  3.5 °C 24.8 °F /  -4 °C 29.92 in /  1013.1 hPa NW 7.2 mph /  11.6 km/h 12.7 mph /  20.4 km/h 58 % 0.00 in /  0 mm
07:32 38.4 °F /  3.6 °C 24.9 °F /  -3.9 °C 29.92 in /  1013.1 hPa North 7.4 mph /  11.9 km/h 16.1 mph /  25.9 km/h 58 % 0.00 in /  0 mm
07:42 38.6 °F /  3.7 °C 24.7 °F /  -4.1 °C 29.92 in /  1013.1 hPa West 6.6 mph /  10.6 km/h 12.7 mph /  20.4 km/h 57 % 0.00 in /  0 mm
07:48 38.7 °F /  3.7 °C 24.3 °F /  -4.3 °C 29.92 in /  1013.1 hPa WNW 9.0 mph /  14.5 km/h 24.0 mph /  38.6 km/h 56 % 0.00 in /  0 mm
07:53 38.8 °F /  3.8 °C 23.6 °F /  -4.7 °C 29.92 in /  1013.1 hPa WNW 11.3 mph /  18.2 km/h 18.4 mph /  29.6 km/h 54 % 0.00 in /  0 mm
07:57 38.9 °F /  3.8 °C 24.1 °F /  -4.4 °C 29.93 in /  1013.4 hPa NW 6.9 mph /  11.1 km/h 11.5 mph /  18.5 km/h 55 % 0.00 in /  0 mm
08:03 39.0 °F /  3.9 °C 24.2 °F /  -4.3 °C 29.93 in /  1013.4 hPa WNW 8.0 mph /  12.9 km/h 17.0 mph /  27.4 km/h 55 % 0.00 in /  0 mm
08:08 39.0 °F /  3.9 °C 22.8 °F /  -5.1 °C 29.94 in /  1013.8 hPa NW 8.0 mph /  12.9 km/h 17.0 mph /  27.4 km/h 52 % 0.00 in /  0 mm
08:13 39.0 °F /  3.9 °C 23.7 °F /  -4.6 °C 29.94 in /  1013.8 hPa NW 9.6 mph /  15.4 km/h 16.1 mph /  25.9 km/h 54 % 0.00 in /  0 mm
08:18 39.1 °F /  3.9 °C 23.8 °F /  -4.6 °C 29.94 in /  1013.8 hPa WNW 8.0 mph /  12.9 km/h 24.0 mph /  38.6 km/h 54 % 0.00 in /  0 mm
08:23 39.2 °F /  4 °C 23.9 °F /  -4.5 °C 29.94 in /  1013.8 hPa West 6.7 mph /  10.8 km/h 21.9 mph /  35.2 km/h 54 % 0.00 in /  0 mm
08:29 39.3 °F /  4.1 °C 24.9 °F /  -3.9 °C 29.94 in /  1013.8 hPa NW 9.4 mph /  15.1 km/h 11.5 mph /  18.5 km/h 56 % 0.00 in /  0 mm
08:34 39.4 °F /  4.1 °C 23.7 °F /  -4.6 °C 29.94 in /  1013.8 hPa NW 9.4 mph /  15.1 km/h 13.8 mph /  22.2 km/h 53 % 0.00 in /  0 mm
08:39 39.4 °F /  4.1 °C 23.7 °F /  -4.6 °C 29.95 in /  1014.1 hPa WNW 13.6 mph /  21.9 km/h 20.7 mph /  33.3 km/h 53 % 0.00 in /  0 mm
08:44 39.1 °F /  3.9 °C 23.4 °F /  -4.8 °C 29.95 in /  1014.1 hPa WNW 10.0 mph /  16.1 km/h 26.5 mph /  42.6 km/h 53 % 0.00 in /  0 mm
08:49 38.7 °F /  3.7 °C 23.0 °F /  -5 °C 29.96 in /  1014.4 hPa WNW 11.4 mph /  18.3 km/h 21.9 mph /  35.2 km/h 53 % 0.00 in /  0 mm
08:54 38.4 °F /  3.6 °C 23.2 °F /  -4.9 °C 29.96 in /  1014.4 hPa WNW 14.1 mph /  22.7 km/h 27.6 mph /  44.4 km/h 54 % 0.00 in /  0 mm
08:59 38.3 °F /  3.5 °C 22.2 °F /  -5.4 °C 29.97 in /  1014.8 hPa NW 8.7 mph /  14 km/h 19.6 mph /  31.5 km/h 52 % 0.00 in /  0 mm
09:09 38.3 °F /  3.5 °C 23.5 °F /  -4.7 °C 29.97 in /  1014.8 hPa NW 7.7 mph /  12.4 km/h 11.5 mph /  18.5 km/h 55 % 0.00 in /  0 mm
09:14 38.2 °F /  3.4 °C 23.0 °F /  -5 °C 29.98 in /  1015.1 hPa NNW 8.0 mph /  12.9 km/h 21.9 mph /  35.2 km/h 54 % 0.00 in /  0 mm
09:19 38.0 °F /  3.3 °C 22.4 °F /  -5.3 °C 29.98 in /  1015.1 hPa NNW 11.7 mph /  18.8 km/h 19.6 mph /  31.5 km/h 53 % 0.00 in /  0 mm
09:24 37.7 °F /  3.2 °C 20.2 °F /  -6.6 °C 29.99 in /  1015.5 hPa NW 9.0 mph /  14.5 km/h 15.0 mph /  24.1 km/h 49 % 0.00 in /  0 mm
09:29 37.4 °F /  3 °C 18.5 °F /  -7.5 °C 29.99 in /  1015.5 hPa NNE 12.9 mph /  20.8 km/h 20.7 mph /  33.3 km/h 46 % 0.00 in /  0 mm
09:34 37.1 °F /  2.8 °C 18.7 °F /  -7.4 °C 29.99 in /  1015.5 hPa NNW 9.7 mph /  15.6 km/h 19.6 mph /  31.5 km/h 47 % 0.00 in /  0 mm
09:39 36.9 °F /  2.7 °C 19.5 °F /  -6.9 °C 30.00 in /  1015.8 hPa WNW 10.6 mph /  17.1 km/h 19.0 mph /  30.6 km/h 49 % 0.00 in /  0 mm
09:44 36.7 °F /  2.6 °C 18.8 °F /  -7.3 °C 30.00 in /  1015.8 hPa North 11.4 mph /  18.3 km/h 19.6 mph /  31.5 km/h 48 % 0.00 in /  0 mm
09:49 36.7 °F /  2.6 °C 20.3 °F /  -6.5 °C 30.01 in /  1016.1 hPa NW 12.3 mph /  19.8 km/h 19.0 mph /  30.6 km/h 51 % 0.00 in /  0 mm
09:54 36.8 °F /  2.7 °C 19.4 °F /  -7 °C 30.01 in /  1016.1 hPa NW 11.4 mph /  18.3 km/h 19.6 mph /  31.5 km/h 49 % 0.00 in /  0 mm
09:59 36.8 °F /  2.7 °C 19.9 °F /  -6.7 °C 30.01 in /  1016.1 hPa WNW 7.3 mph /  11.7 km/h 20.7 mph /  33.3 km/h 50 % 0.00 in /  0 mm
10:04 36.8 °F /  2.7 °C 17.9 °F /  -7.8 °C 30.01 in /  1016.1 hPa West 9.8 mph /  15.8 km/h 25.3 mph /  40.7 km/h 46 % 0.00 in /  0 mm
10:09 36.7 °F /  2.6 °C 18.3 °F /  -7.6 °C 30.01 in /  1016.1 hPa NW 13.3 mph /  21.4 km/h 20.7 mph /  33.3 km/h 47 % 0.00 in /  0 mm
10:19 36.5 °F /  2.5 °C 18.2 °F /  -7.7 °C 30.02 in /  1016.5 hPa NW 10.5 mph /  16.9 km/h 18.4 mph /  29.6 km/h 47 % 0.00 in /  0 mm
10:24 36.7 °F /  2.6 °C 18.3 °F /  -7.6 °C 30.02 in /  1016.5 hPa West 7.5 mph /  12.1 km/h 13.8 mph /  22.2 km/h 47 % 0.00 in /  0 mm
10:29 36.8 °F /  2.7 °C 16.9 °F /  -8.4 °C 30.03 in /  1016.8 hPa NW 12.7 mph /  20.4 km/h 23.0 mph /  37 km/h 44 % 0.00 in /  0 mm
10:34 36.8 °F /  2.7 °C 17.4 °F /  -8.1 °C 30.03 in /  1016.8 hPa NW 9.0 mph /  14.5 km/h 19.6 mph /  31.5 km/h 45 % 0.00 in /  0 mm
10:39 36.9 °F /  2.7 °C 18.0 °F /  -7.8 °C 30.03 in /  1016.8 hPa NW 11.0 mph /  17.7 km/h 19.6 mph /  31.5 km/h 46 % 0.00 in /  0 mm
10:44 37.1 °F /  2.8 °C 18.2 °F /  -7.7 °C 30.04 in /  1017.2 hPa WNW 8.9 mph /  14.3 km/h 12.7 mph /  20.4 km/h 46 % 0.00 in /  0 mm
10:50 37.1 °F /  2.8 °C 16.6 °F /  -8.6 °C 30.03 in /  1016.8 hPa NNW 10.8 mph /  17.4 km/h 19.6 mph /  31.5 km/h 43 % 0.00 in /  0 mm
10:55 37.2 °F /  2.9 °C 17.8 °F /  -7.9 °C 30.03 in /  1016.8 hPa NW 9.4 mph /  15.1 km/h 23.0 mph /  37 km/h 45 % 0.00 in /  0 mm
11:00 37.4 °F /  3 °C 18.5 °F /  -7.5 °C 30.04 in /  1017.2 hPa WNW 9.8 mph /  15.8 km/h 21.9 mph /  35.2 km/h 46 % 0.00 in /  0 mm
11:05 37.6 °F /  3.1 °C 18.7 °F /  -7.4 °C 30.04 in /  1017.2 hPa WNW 8.9 mph /  14.3 km/h 19.0 mph /  30.6 km/h 46 % 0.00 in /  0 mm
11:10 37.5 °F /  3.1 °C 17.5 °F /  -8.1 °C 30.05 in /  1017.5 hPa West 10.1 mph /  16.3 km/h 21.0 mph /  33.8 km/h 44 % 0.00 in /  0 mm
11:15 37.5 °F /  3.1 °C 18.6 °F /  -7.4 °C 30.05 in /  1017.5 hPa NNW 10.9 mph /  17.5 km/h 18.0 mph /  29 km/h 46 % 0.00 in /  0 mm
11:20 37.8 °F /  3.2 °C 17.3 °F /  -8.2 °C 30.05 in /  1017.5 hPa North 7.7 mph /  12.4 km/h 15.0 mph /  24.1 km/h 43 % 0.00 in /  0 mm
11:25 37.9 °F /  3.3 °C 17.4 °F /  -8.1 °C 30.06 in /  1017.8 hPa NNW 5.4 mph /  8.7 km/h 18.4 mph /  29.6 km/h 43 % 0.00 in /  0 mm
11:35 37.9 °F /  3.3 °C 16.8 °F /  -8.4 °C 30.06 in /  1017.8 hPa WNW 12.0 mph /  19.3 km/h 19.6 mph /  31.5 km/h 42 % 0.00 in /  0 mm
11:40 37.7 °F /  3.2 °C 16.6 °F /  -8.6 °C 30.06 in /  1017.8 hPa WSW 8.9 mph /  14.3 km/h 19.6 mph /  31.5 km/h 42 % 0.00 in /  0 mm
11:45 37.6 °F /  3.1 °C 16.5 °F /  -8.6 °C 30.06 in /  1017.8 hPa WNW 17.8 mph /  28.6 km/h 21.9 mph /  35.2 km/h 42 % 0.00 in /  0 mm
11:50 37.3 °F /  2.9 °C 15.7 °F /  -9.1 °C 30.07 in /  1018.2 hPa NW 6.5 mph /  10.5 km/h 16.1 mph /  25.9 km/h 41 % 0.00 in /  0 mm
11:56 37.4 °F /  3 °C 18.0 °F /  -7.8 °C 30.07 in /  1018.2 hPa WNW 7.0 mph /  11.3 km/h 19.0 mph /  30.6 km/h 45 % 0.00 in /  0 mm
12:01 37.4 °F /  3 °C 15.2 °F /  -9.3 °C 30.07 in /  1018.2 hPa NNW 12.9 mph /  20.8 km/h 20.7 mph /  33.3 km/h 40 % 0.00 in /  0 mm
12:06 37.2 °F /  2.9 °C 15.1 °F /  -9.4 °C 30.07 in /  1018.2 hPa NW 7.0 mph /  11.3 km/h 17.3 mph /  27.8 km/h 40 % 0.00 in /  0 mm
12:11 37.2 °F /  2.9 °C 15.1 °F /  -9.4 °C 30.08 in /  1018.5 hPa WNW 9.3 mph /  15 km/h 16.1 mph /  25.9 km/h 40 % 0.00 in /  0 mm
12:16 37.1 °F /  2.8 °C 14.4 °F /  -9.8 °C 30.08 in /  1018.5 hPa NNW 14.1 mph /  22.7 km/h 23.0 mph /  37 km/h 39 % 0.00 in /  0 mm
12:21 37.1 °F /  2.8 °C 15.0 °F /  -9.4 °C 30.08 in /  1018.5 hPa NW 7.0 mph /  11.3 km/h 17.3 mph /  27.8 km/h 40 % 0.00 in /  0 mm
12:26 36.9 °F /  2.7 °C 14.2 °F /  -9.9 °C 30.08 in /  1018.5 hPa NW 6.9 mph /  11.1 km/h 19.6 mph /  31.5 km/h 39 % 0.00 in /  0 mm
12:31 36.9 °F /  2.7 °C 13.6 °F /  -10.2 °C 30.08 in /  1018.5 hPa WNW 10.6 mph /  17.1 km/h 25.3 mph /  40.7 km/h 38 % 0.00 in /  0 mm
12:36 37.0 °F /  2.8 °C 13.7 °F /  -10.2 °C 30.08 in /  1018.5 hPa WNW 12.0 mph /  19.3 km/h 19.6 mph /  31.5 km/h 38 % 0.00 in /  0 mm
12:41 36.9 °F /  2.7 °C 12.4 °F /  -10.9 °C 30.09 in /  1018.8 hPa NNW 8.2 mph /  13.2 km/h 20.7 mph /  33.3 km/h 36 % 0.00 in /  0 mm
12:46 36.8 °F /  2.7 °C 13.5 °F /  -10.3 °C 30.09 in /  1018.8 hPa West 9.6 mph /  15.4 km/h 18.4 mph /  29.6 km/h 38 % 0.00 in /  0 mm
12:51 36.7 °F /  2.6 °C 12.2 °F /  -11 °C 30.09 in /  1018.8 hPa WNW 12.2 mph /  19.6 km/h 18.4 mph /  29.6 km/h 36 % 0.00 in /  0 mm
12:56 36.7 °F /  2.6 °C 12.8 °F /  -10.7 °C 30.09 in /  1018.8 hPa WSW 6.3 mph /  10.1 km/h 12.7 mph /  20.4 km/h 37 % 0.00 in /  0 mm
13:01 36.7 °F /  2.6 °C 11.6 °F /  -11.3 °C 30.09 in /  1018.8 hPa NW 12.1 mph /  19.5 km/h 20.7 mph /  33.3 km/h 35 % 0.00 in /  0 mm
13:06 36.5 °F /  2.5 °C 10.1 °F /  -12.2 °C 30.10 in /  1019.2 hPa NW 9.4 mph /  15.1 km/h 18.4 mph /  29.6 km/h 33 % 0.00 in /  0 mm
13:11 36.3 °F /  2.4 °C 9.9 °F /  -12.3 °C 30.10 in /  1019.2 hPa NNW 11.8 mph /  19 km/h 19.6 mph /  31.5 km/h 33 % 0.00 in /  0 mm
13:16 36.1 °F /  2.3 °C 10.4 °F /  -12 °C 30.10 in /  1019.2 hPa WNW 12.6 mph /  20.3 km/h 20.7 mph /  33.3 km/h 34 % 0.00 in /  0 mm
13:21 36.1 °F /  2.3 °C 9.7 °F /  -12.4 °C 30.11 in /  1019.5 hPa North 8.5 mph /  13.7 km/h 17.3 mph /  27.8 km/h 33 % 0.00 in /  0 mm
13:26 36.5 °F /  2.5 °C 12.7 °F /  -10.7 °C 30.11 in /  1019.5 hPa WNW 4.8 mph /  7.7 km/h 13.0 mph /  20.9 km/h 37 % 0.00 in /  0 mm
13:31 36.9 °F /  2.7 °C 10.4 °F /  -12 °C 30.11 in /  1019.5 hPa West 6.8 mph /  10.9 km/h 13.8 mph /  22.2 km/h 33 % 0.00 in /  0 mm
13:36 37.1 °F /  2.8 °C 11.9 °F /  -11.2 °C 30.11 in /  1019.5 hPa NNW 12.6 mph /  20.3 km/h 19.6 mph /  31.5 km/h 35 % 0.00 in /  0 mm
13:42 37.2 °F /  2.9 °C 10.7 °F /  -11.8 °C 30.10 in /  1019.2 hPa North 11.9 mph /  19.2 km/h 20.7 mph /  33.3 km/h 33 % 0.00 in /  0 mm
13:47 37.0 °F /  2.8 °C 10.5 °F /  -11.9 °C 30.11 in /  1019.5 hPa NNW 8.4 mph /  13.5 km/h 15.0 mph /  24.1 km/h 33 % 0.00 in /  0 mm
13:52 37.0 °F /  2.8 °C 11.2 °F /  -11.6 °C 30.11 in /  1019.5 hPa NNW 10.4 mph /  16.7 km/h 18.4 mph /  29.6 km/h 34 % 0.00 in /  0 mm
13:57 36.6 °F /  2.6 °C 8.8 °F /  -12.9 °C 30.12 in /  1019.9 hPa North 11.0 mph /  17.7 km/h 18.4 mph /  29.6 km/h 31 % 0.00 in /  0 mm
14:02 36.5 °F /  2.5 °C 10.7 °F /  -11.8 °C 30.12 in /  1019.9 hPa NW 7.6 mph /  12.2 km/h 13.8 mph /  22.2 km/h 34 % 0.00 in /  0 mm
14:07 36.6 °F /  2.6 °C 11.5 °F /  -11.4 °C 30.12 in /  1019.9 hPa NW 3.8 mph /  6.1 km/h 11.5 mph /  18.5 km/h 35 % 0.00 in /  0 mm
14:12 37.0 °F /  2.8 °C 11.8 °F /  -11.2 °C 30.13 in /  1020.2 hPa North 9.0 mph /  14.5 km/h 13.8 mph /  22.2 km/h 35 % 0.00 in /  0 mm
14:14 37.0 °F /  2.8 °C 11.2 °F /  -11.6 °C 30.12 in /  1019.9 hPa NW 9.5 mph /  15.3 km/h 16.1 mph /  25.9 km/h 34 % 0.00 in /  0 mm
14:19 36.9 °F /  2.7 °C 11.8 °F /  -11.2 °C 30.13 in /  1020.2 hPa NW 9.1 mph /  14.6 km/h 18.4 mph /  29.6 km/h 35 % 0.00 in /  0 mm
14:24 36.8 °F /  2.7 °C 12.3 °F /  -10.9 °C 30.13 in /  1020.2 hPa NW 9.4 mph /  15.1 km/h 15.0 mph /  24.1 km/h 36 % 0.00 in /  0 mm
14:29 37.1 °F /  2.8 °C 12.6 °F /  -10.8 °C 30.13 in /  1020.2 hPa WNW 8.1 mph /  13 km/h 18.4 mph /  29.6 km/h 36 % 0.00 in /  0 mm
14:34 37.2 °F /  2.9 °C 12.7 °F /  -10.7 °C 30.13 in /  1020.2 hPa NE 6.2 mph /  10 km/h 10.4 mph /  16.7 km/h 36 % 0.00 in /  0 mm
14:39 37.4 °F /  3 °C 11.5 °F /  -11.4 °C 30.13 in /  1020.2 hPa NNW 10.7 mph /  17.2 km/h 13.8 mph /  22.2 km/h 34 % 0.00 in /  0 mm
14:44 37.1 °F /  2.8 °C 9.9 °F /  -12.3 °C 30.14 in /  1020.5 hPa NNW 7.6 mph /  12.2 km/h 11.5 mph /  18.5 km/h 32 % 0.00 in /  0 mm
14:49 36.9 °F /  2.7 °C 11.8 °F /  -11.2 °C 30.14 in /  1020.5 hPa North 7.0 mph /  11.3 km/h 19.0 mph /  30.6 km/h 35 % 0.00 in /  0 mm
14:54 36.8 °F /  2.7 °C 11.0 °F /  -11.7 °C 30.14 in /  1020.5 hPa North 8.0 mph /  12.9 km/h 18.4 mph /  29.6 km/h 34 % 0.00 in /  0 mm
14:59 36.4 °F /  2.4 °C 9.3 °F /  -12.6 °C 30.14 in /  1020.5 hPa NW 7.8 mph /  12.6 km/h 19.6 mph /  31.5 km/h 32 % 0.00 in /  0 mm
15:04 36.2 °F /  2.3 °C 9.1 °F /  -12.7 °C 30.14 in /  1020.5 hPa WNW 9.0 mph /  14.5 km/h 17.0 mph /  27.4 km/h 32 % 0.00 in /  0 mm
15:09 36.1 °F /  2.3 °C 9.0 °F /  -12.8 °C 30.13 in /  1020.2 hPa WNW 9.3 mph /  15 km/h 15.0 mph /  24.1 km/h 32 % 0.00 in /  0 mm
15:14 36.1 °F /  2.3 °C 8.3 °F /  -13.2 °C 30.13 in /  1020.2 hPa NW 10.7 mph /  17.2 km/h 17.3 mph /  27.8 km/h 31 % 0.00 in /  0 mm
15:19 36.3 °F /  2.4 °C 12.5 °F /  -10.8 °C 30.13 in /  1020.2 hPa WNW 4.4 mph /  7.1 km/h 12.7 mph /  20.4 km/h 37 % 0.00 in /  0 mm
15:24 36.3 °F /  2.4 °C 10.6 °F /  -11.9 °C 30.14 in /  1020.5 hPa North 9.3 mph /  15 km/h 16.1 mph /  25.9 km/h 34 % 0.00 in /  0 mm
15:25 36.2 °F /  2.3 °C 10.5 °F /  -11.9 °C 30.14 in /  1020.5 hPa North 6.0 mph /  9.7 km/h 17.3 mph /  27.8 km/h 34 % 0.00 in /  0 mm
15:26 36.2 °F /  2.3 °C 10.5 °F /  -11.9 °C 30.14 in /  1020.5 hPa NNE 7.1 mph /  11.4 km/h 13.8 mph /  22.2 km/h 34 % 0.00 in /  0 mm
15:27 36.2 °F /  2.3 °C 11.1 °F /  -11.6 °C 30.14 in /  1020.5 hPa NNW 7.6 mph /  12.2 km/h 18.4 mph /  29.6 km/h 35 % 0.00 in /  0 mm
15:30 36.1 °F /  2.3 °C 9.7 °F /  -12.4 °C 30.14 in /  1020.5 hPa NNE 11.0 mph /  17.7 km/h 17.3 mph /  27.8 km/h 33 % 0.00 in /  0 mm
15:35 35.9 °F /  2.2 °C 10.2 °F /  -12.1 °C 30.14 in /  1020.5 hPa North 12.2 mph /  19.6 km/h 20.0 mph /  32.2 km/h 34 % 0.00 in /  0 mm
15:37 35.7 °F /  2.1 °C 9.4 °F /  -12.6 °C 30.14 in /  1020.5 hPa NNE 9.2 mph /  14.8 km/h 11.0 mph /  17.7 km/h 33 % 0.00 in /  0 mm
15:39 35.7 °F /  2.1 °C 8.7 °F /  -12.9 °C 30.14 in /  1020.5 hPa NNE 7.7 mph /  12.4 km/h 20.0 mph /  32.2 km/h 32 % 0.00 in /  0 mm
15:44 35.4 °F /  1.9 °C 8.4 °F /  -13.1 °C 30.15 in /  1020.9 hPa NNW 6.6 mph /  10.6 km/h 21.9 mph /  35.2 km/h 32 % 0.00 in /  0 mm
15:50 35.2 °F /  1.8 °C 8.9 °F /  -12.8 °C 30.14 in /  1020.5 hPa North 7.9 mph /  12.7 km/h 13.8 mph /  22.2 km/h 33 % 0.00 in /  0 mm
15:55 34.9 °F /  1.6 °C 8.0 °F /  -13.3 °C 30.14 in /  1020.5 hPa NNW 10.4 mph /  16.7 km/h 19.6 mph /  31.5 km/h 32 % 0.00 in /  0 mm
15:57 34.8 °F /  1.6 °C 7.9 °F /  -13.4 °C 30.15 in /  1020.9 hPa North 8.4 mph /  13.5 km/h 17.3 mph /  27.8 km/h 32 % 0.00 in /  0 mm
16:02 34.7 °F /  1.5 °C 8.5 °F /  -13.1 °C 30.15 in /  1020.9 hPa North 10.8 mph /  17.4 km/h 15.0 mph /  24.1 km/h 33 % 0.00 in /  0 mm
16:06 34.6 °F /  1.4 °C 7.7 °F /  -13.5 °C 30.15 in /  1020.9 hPa NNE 8.1 mph /  13 km/h 13.8 mph /  22.2 km/h 32 % 0.00 in /  0 mm
16:11 34.6 °F /  1.4 °C 9.1 °F /  -12.7 °C 30.16 in /  1021.2 hPa NW 8.2 mph /  13.2 km/h 16.1 mph /  25.9 km/h 34 % 0.00 in /  0 mm
16:16 34.6 °F /  1.4 °C 7.7 °F /  -13.5 °C 30.16 in /  1021.2 hPa NW 9.1 mph /  14.6 km/h 13.0 mph /  20.9 km/h 32 % 0.00 in /  0 mm
16:26 34.3 °F /  1.3 °C 6.0 °F /  -14.4 °C 30.17 in /  1021.6 hPa NNW 11.7 mph /  18.8 km/h 20.7 mph /  33.3 km/h 30 % 0.00 in /  0 mm
16:31 34.1 °F /  1.2 °C 7.3 °F /  -13.7 °C 30.17 in /  1021.6 hPa NNW 8.8 mph /  14.2 km/h 19.0 mph /  30.6 km/h 32 % 0.00 in /  0 mm
16:35 34.0 °F /  1.1 °C 6.5 °F /  -14.2 °C 30.17 in /  1021.6 hPa North 12.0 mph /  19.3 km/h 19.6 mph /  31.5 km/h 31 % 0.00 in /  0 mm
16:40 33.9 °F /  1.1 °C 6.4 °F /  -14.2 °C 30.17 in /  1021.6 hPa North 8.5 mph /  13.7 km/h 19.6 mph /  31.5 km/h 31 % 0.00 in /  0 mm
16:45 33.9 °F /  1.1 °C 8.4 °F /  -13.1 °C 30.17 in /  1021.6 hPa NW 10.4 mph /  16.7 km/h 19.6 mph /  31.5 km/h 34 % 0.00 in /  0 mm
16:50 33.9 °F /  1.1 °C 7.8 °F /  -13.4 °C 30.17 in /  1021.6 hPa NW 7.9 mph /  12.7 km/h 21.9 mph /  35.2 km/h 33 % 0.00 in /  0 mm
16:55 33.7 °F /  0.9 °C 6.2 °F /  -14.3 °C 30.18 in /  1021.9 hPa NNW 12.5 mph /  20.1 km/h 19.6 mph /  31.5 km/h 31 % 0.00 in /  0 mm
17:00 33.4 °F /  0.8 °C 6.7 °F /  -14.1 °C 30.18 in /  1021.9 hPa NNW 10.8 mph /  17.4 km/h 16.1 mph /  25.9 km/h 32 % 0.00 in /  0 mm
17:05 33.2 °F /  0.7 °C 7.2 °F /  -13.8 °C 30.19 in /  1022.2 hPa North 11.3 mph /  18.2 km/h 16.1 mph /  25.9 km/h 33 % 0.00 in /  0 mm
17:08 33.0 °F /  0.6 °C 5.6 °F /  -14.7 °C 30.19 in /  1022.2 hPa North 8.9 mph /  14.3 km/h 19.6 mph /  31.5 km/h 31 % 0.00 in /  0 mm
17:09 32.9 °F /  0.5 °C 6.9 °F /  -13.9 °C 30.18 in /  1021.9 hPa NW 8.2 mph /  13.2 km/h 15.0 mph /  24.1 km/h 33 % 0.00 in /  0 mm
17:10 32.9 °F /  0.5 °C 7.6 °F /  -13.6 °C 30.19 in /  1022.2 hPa NNE 8.2 mph /  13.2 km/h 15.0 mph /  24.1 km/h 34 % 0.00 in /  0 mm
17:15 32.5 °F /  0.3 °C 7.2 °F /  -13.8 °C 30.19 in /  1022.2 hPa NW 7.0 mph /  11.3 km/h 14.0 mph /  22.5 km/h 34 % 0.00 in /  0 mm
17:25 32.3 °F /  0.2 °C 7.0 °F /  -13.9 °C 30.19 in /  1022.2 hPa NW 10.5 mph /  16.9 km/h 16.0 mph /  25.7 km/h 34 % 0.00 in /  0 mm
17:30 32.1 °F /  0.1 °C 7.5 °F /  -13.6 °C 30.20 in /  1022.6 hPa North 9.6 mph /  15.4 km/h 18.4 mph /  29.6 km/h 35 % 0.00 in /  0 mm
17:35 32.0 °F /  0 °C 6.1 °F /  -14.4 °C 30.20 in /  1022.6 hPa North 6.9 mph /  11.1 km/h 10.4 mph /  16.7 km/h 33 % 0.00 in /  0 mm
17:41 31.9 °F /  -0.1 °C 6.0 °F /  -14.4 °C 30.21 in /  1022.9 hPa NW 8.8 mph /  14.2 km/h 13.8 mph /  22.2 km/h 33 % 0.00 in /  0 mm
17:46 31.8 °F /  -0.1 °C 5.9 °F /  -14.5 °C 30.21 in /  1022.9 hPa NW 6.8 mph /  10.9 km/h 14.0 mph /  22.5 km/h 33 % 0.00 in /  0 mm
17:51 31.7 °F /  -0.2 °C 5.8 °F /  -14.6 °C 30.21 in /  1022.9 hPa North 5.5 mph /  8.9 km/h 13.8 mph /  22.2 km/h 33 % 0.00 in /  0 mm
17:56 31.6 °F /  -0.2 °C 7.7 °F /  -13.5 °C 30.21 in /  1022.9 hPa NNW 6.8 mph /  10.9 km/h 19.6 mph /  31.5 km/h 36 % 0.00 in /  0 mm
18:01 31.5 °F /  -0.3 °C 5.7 °F /  -14.6 °C 30.22 in /  1023.2 hPa North 7.0 mph /  11.3 km/h 16.1 mph /  25.9 km/h 33 % 0.00 in /  0 mm
18:06 31.4 °F /  -0.3 °C 6.9 °F /  -13.9 °C 30.22 in /  1023.2 hPa NNW 7.2 mph /  11.6 km/h 16.1 mph /  25.9 km/h 35 % 0.00 in /  0 mm
18:13 31.2 °F /  -0.4 °C 6.7 °F /  -14.1 °C 30.22 in /  1023.2 hPa NW 7.9 mph /  12.7 km/h 17.0 mph /  27.4 km/h 35 % 0.00 in /  0 mm
18:18 30.9 °F /  -0.6 °C 5.8 °F /  -14.6 °C 30.23 in /  1023.6 hPa NW 7.6 mph /  12.2 km/h 15.0 mph /  24.1 km/h 34 % 0.00 in /  0 mm
18:23 30.8 °F /  -0.7 °C 8.1 °F /  -13.3 °C 30.24 in /  1023.9 hPa NNW 6.9 mph /  11.1 km/h 13.0 mph /  20.9 km/h 38 % 0.00 in /  0 mm
18:28 30.6 °F /  -0.8 °C 6.8 °F /  -14 °C 30.24 in /  1023.9 hPa NW 10.5 mph /  16.9 km/h 20.7 mph /  33.3 km/h 36 % 0.00 in /  0 mm
18:33 30.5 °F /  -0.8 °C 6.1 °F /  -14.4 °C 30.24 in /  1023.9 hPa NNE 9.7 mph /  15.6 km/h 17.3 mph /  27.8 km/h 35 % 0.00 in /  0 mm
18:38 30.3 °F /  -0.9 °C 5.9 °F /  -14.5 °C 30.25 in /  1024.3 hPa NW 9.1 mph /  14.6 km/h 16.1 mph /  25.9 km/h 35 % 0.00 in /  0 mm
18:43 30.2 °F /  -1 °C 6.4 °F /  -14.2 °C 30.26 in /  1024.6 hPa North 9.0 mph /  14.5 km/h 16.1 mph /  25.9 km/h 36 % 0.00 in /  0 mm
18:53 30.0 °F /  -1.1 °C 6.2 °F /  -14.3 °C 30.26 in /  1024.6 hPa NW 7.7 mph /  12.4 km/h 16.1 mph /  25.9 km/h 36 % 0.00 in /  0 mm
18:58 29.9 °F /  -1.2 °C 7.3 °F /  -13.7 °C 30.26 in /  1024.6 hPa North 10.5 mph /  16.9 km/h 18.4 mph /  29.6 km/h 38 % 0.00 in /  0 mm
19:04 29.8 °F /  -1.2 °C 6.1 °F /  -14.4 °C 30.26 in /  1024.6 hPa NNW 9.5 mph /  15.3 km/h 17.3 mph /  27.8 km/h 36 % 0.00 in /  0 mm
19:09 29.7 °F /  -1.3 °C 6.6 °F /  -14.1 °C 30.27 in /  1024.9 hPa NW 9.7 mph /  15.6 km/h 19.6 mph /  31.5 km/h 37 % 0.00 in /  0 mm
19:14 29.6 °F /  -1.3 °C 6.5 °F /  -14.2 °C 30.27 in /  1024.9 hPa NW 7.9 mph /  12.7 km/h 17.3 mph /  27.8 km/h 37 % 0.00 in /  0 mm
19:19 29.5 °F /  -1.4 °C 7.0 °F /  -13.9 °C 30.28 in /  1025.3 hPa NNW 6.8 mph /  10.9 km/h 12.7 mph /  20.4 km/h 38 % 0.00 in /  0 mm
19:24 29.4 °F /  -1.4 °C 5.7 °F /  -14.6 °C 30.28 in /  1025.3 hPa NNW 7.0 mph /  11.3 km/h 11.5 mph /  18.5 km/h 36 % 0.00 in /  0 mm
19:29 29.3 °F /  -1.5 °C 6.2 °F /  -14.3 °C 30.28 in /  1025.3 hPa NW 5.9 mph /  9.5 km/h 19.6 mph /  31.5 km/h 37 % 0.00 in /  0 mm
19:34 29.2 °F /  -1.6 °C 6.1 °F /  -14.4 °C 30.29 in /  1025.6 hPa NW 9.0 mph /  14.5 km/h 17.3 mph /  27.8 km/h 37 % 0.00 in /  0 mm
19:39 29.0 °F /  -1.7 °C 5.9 °F /  -14.5 °C 30.29 in /  1025.6 hPa NNW 5.0 mph /  8 km/h 8.1 mph /  13 km/h 37 % 0.00 in /  0 mm
19:44 28.9 °F /  -1.7 °C 6.4 °F /  -14.2 °C 30.29 in /  1025.6 hPa NNW 5.3 mph /  8.5 km/h 8.1 mph /  13 km/h 38 % 0.00 in /  0 mm
19:49 28.9 °F /  -1.7 °C 6.4 °F /  -14.2 °C 30.29 in /  1025.6 hPa NNW 6.0 mph /  9.7 km/h 10.4 mph /  16.7 km/h 38 % 0.00 in /  0 mm
19:54 28.8 °F /  -1.8 °C 5.2 °F /  -14.9 °C 30.30 in /  1026 hPa North 4.8 mph /  7.7 km/h 15.0 mph /  24.1 km/h 36 % 0.00 in /  0 mm
19:59 28.7 °F /  -1.8 °C 5.7 °F /  -14.6 °C 30.29 in /  1025.6 hPa NW 2.4 mph /  3.9 km/h 12.0 mph /  19.3 km/h 37 % 0.00 in /  0 mm
20:04 28.6 °F /  -1.9 °C 6.7 °F /  -14.1 °C 30.30 in /  1026 hPa NW 7.3 mph /  11.7 km/h 11.5 mph /  18.5 km/h 39 % 0.00 in /  0 mm
20:09 28.5 °F /  -1.9 °C 6.1 °F /  -14.4 °C 30.30 in /  1026 hPa North 9.0 mph /  14.5 km/h 19.6 mph /  31.5 km/h 38 % 0.00 in /  0 mm
20:14 28.4 °F /  -2 °C 6.6 °F /  -14.1 °C 30.30 in /  1026 hPa NNW 8.2 mph /  13.2 km/h 17.3 mph /  27.8 km/h 39 % 0.00 in /  0 mm
20:19 28.3 °F /  -2.1 °C 7.6 °F /  -13.6 °C 30.31 in /  1026.3 hPa NW 7.7 mph /  12.4 km/h 19.6 mph /  31.5 km/h 41 % 0.00 in /  0 mm
20:24 28.2 °F /  -2.1 °C 7.5 °F /  -13.6 °C 30.31 in /  1026.3 hPa NNW 8.5 mph /  13.7 km/h 16.1 mph /  25.9 km/h 41 % 0.00 in /  0 mm
20:30 28.1 °F /  -2.2 °C 6.8 °F /  -14 °C 30.31 in /  1026.3 hPa NNW 10.5 mph /  16.9 km/h 20.7 mph /  33.3 km/h 40 % 0.00 in /  0 mm
20:34 28.1 °F /  -2.2 °C 7.4 °F /  -13.7 °C 30.31 in /  1026.3 hPa NW 11.6 mph /  18.7 km/h 18.4 mph /  29.6 km/h 41 % 0.00 in /  0 mm
20:40 27.9 °F /  -2.3 °C 7.2 °F /  -13.8 °C 30.32 in /  1026.6 hPa NNW 8.4 mph /  13.5 km/h 16.1 mph /  25.9 km/h 41 % 0.00 in /  0 mm
20:45 27.8 °F /  -2.3 °C 7.1 °F /  -13.8 °C 30.33 in /  1027 hPa NW 10.5 mph /  16.9 km/h 20.7 mph /  33.3 km/h 41 % 0.00 in /  0 mm
20:50 27.8 °F /  -2.3 °C 7.1 °F /  -13.8 °C 30.33 in /  1027 hPa NNW 6.8 mph /  10.9 km/h 13.8 mph /  22.2 km/h 41 % 0.00 in /  0 mm
20:55 27.6 °F /  -2.4 °C 7.5 °F /  -13.6 °C 30.33 in /  1027 hPa NNW 6.5 mph /  10.5 km/h 11.5 mph /  18.5 km/h 42 % 0.00 in /  0 mm
21:00 27.6 °F /  -2.4 °C 6.4 °F /  -14.2 °C 30.33 in /  1027 hPa North 7.1 mph /  11.4 km/h 12.0 mph /  19.3 km/h 40 % 0.00 in /  0 mm
21:05 27.5 °F /  -2.5 °C 6.8 °F /  -14 °C 30.34 in /  1027.3 hPa NW 6.9 mph /  11.1 km/h 19.6 mph /  31.5 km/h 41 % 0.00 in /  0 mm
21:10 27.4 °F /  -2.6 °C 6.2 °F /  -14.3 °C 30.34 in /  1027.3 hPa NW 4.5 mph /  7.2 km/h 13.8 mph /  22.2 km/h 40 % 0.00 in /  0 mm
21:15 27.2 °F /  -2.7 °C 6.6 °F /  -14.1 °C 30.34 in /  1027.3 hPa NNW 9.0 mph /  14.5 km/h 16.0 mph /  25.7 km/h 41 % 0.00 in /  0 mm
21:20 27.2 °F /  -2.7 °C 6.0 °F /  -14.4 °C 30.35 in /  1027.7 hPa North 7.6 mph /  12.2 km/h 14.0 mph /  22.5 km/h 40 % 0.00 in /  0 mm
21:25 27.1 °F /  -2.7 °C 5.9 °F /  -14.5 °C 30.35 in /  1027.7 hPa NNW 7.3 mph /  11.7 km/h 16.1 mph /  25.9 km/h 40 % 0.00 in /  0 mm
21:30 26.9 °F /  -2.8 °C 4.6 °F /  -15.2 °C 30.35 in /  1027.7 hPa North 7.4 mph /  11.9 km/h 15.0 mph /  24.1 km/h 38 % 0.00 in /  0 mm
21:31 26.9 °F /  -2.8 °C 4.6 °F /  -15.2 °C 30.36 in /  1028 hPa NNW 6.5 mph /  10.5 km/h 13.8 mph /  22.2 km/h 38 % 0.00 in /  0 mm
21:36 26.8 °F /  -2.9 °C 4.5 °F /  -15.3 °C 30.36 in /  1028 hPa NW 8.2 mph /  13.2 km/h 13.8 mph /  22.2 km/h 38 % 0.00 in /  0 mm
21:41 26.7 °F /  -2.9 °C 4.5 °F /  -15.3 °C 30.36 in /  1028 hPa NNW 9.3 mph /  15 km/h 15.0 mph /  24.1 km/h 38 % 0.00 in /  0 mm
21:46 26.5 °F /  -3.1 °C 3.7 °F /  -15.7 °C 30.36 in /  1028 hPa NNW 9.8 mph /  15.8 km/h 19.6 mph /  31.5 km/h 37 % 0.00 in /  0 mm
21:51 26.5 °F /  -3.1 °C 3.7 °F /  -15.7 °C 30.36 in /  1028 hPa WNW 7.0 mph /  11.3 km/h 11.5 mph /  18.5 km/h 37 % 0.00 in /  0 mm
21:56 26.4 °F /  -3.1 °C 4.2 °F /  -15.4 °C 30.36 in /  1028 hPa NW 8.4 mph /  13.5 km/h 12.7 mph /  20.4 km/h 38 % 0.00 in /  0 mm
22:06 26.2 °F /  -3.2 °C 3.4 °F /  -15.9 °C 30.36 in /  1028 hPa NNW 9.3 mph /  15 km/h 17.3 mph /  27.8 km/h 37 % 0.00 in /  0 mm
22:11 26.2 °F /  -3.2 °C 4.6 °F /  -15.2 °C 30.36 in /  1028 hPa NNW 7.5 mph /  12.1 km/h 15.0 mph /  24.1 km/h 39 % 0.00 in /  0 mm
22:16 26.1 °F /  -3.3 °C 3.9 °F /  -15.6 °C 30.36 in /  1028 hPa NNW 8.1 mph /  13 km/h 12.7 mph /  20.4 km/h 38 % 0.00 in /  0 mm
22:21 26.1 °F /  -3.3 °C 4.5 °F /  -15.3 °C 30.36 in /  1028 hPa NNW 7.0 mph /  11.3 km/h 12.7 mph /  20.4 km/h 39 % 0.00 in /  0 mm
22:26 26.1 °F /  -3.3 °C 5.6 °F /  -14.7 °C 30.37 in /  1028.3 hPa NNE 5.6 mph /  9 km/h 14.0 mph /  22.5 km/h 41 % 0.00 in /  0 mm
22:32 26.0 °F /  -3.3 °C 3.8 °F /  -15.7 °C 30.37 in /  1028.3 hPa NNW 5.9 mph /  9.5 km/h 15.0 mph /  24.1 km/h 38 % 0.00 in /  0 mm
22:37 25.9 °F /  -3.4 °C 3.2 °F /  -16 °C 30.37 in /  1028.3 hPa North 8.9 mph /  14.3 km/h 15.0 mph /  24.1 km/h 37 % 0.00 in /  0 mm
22:42 25.9 °F /  -3.4 °C 3.7 °F /  -15.7 °C 30.37 in /  1028.3 hPa North 4.9 mph /  7.9 km/h 11.5 mph /  18.5 km/h 38 % 0.00 in /  0 mm
22:47 25.8 °F /  -3.4 °C 3.1 °F /  -16.1 °C 30.38 in /  1028.7 hPa NW 10.6 mph /  17.1 km/h 17.3 mph /  27.8 km/h 37 % 0.00 in /  0 mm
22:52 25.8 °F /  -3.4 °C 3.1 °F /  -16.1 °C 30.38 in /  1028.7 hPa NNW 7.5 mph /  12.1 km/h 15.0 mph /  24.1 km/h 37 % 0.00 in /  0 mm
22:57 25.7 °F /  -3.5 °C 2.4 °F /  -16.4 °C 30.38 in /  1028.7 hPa North 7.0 mph /  11.3 km/h 11.5 mph /  18.5 km/h 36 % 0.00 in /  0 mm
23:02 25.7 °F /  -3.5 °C 3.6 °F /  -15.8 °C 30.38 in /  1028.7 hPa NNW 7.7 mph /  12.4 km/h 16.0 mph /  25.7 km/h 38 % 0.00 in /  0 mm
23:07 25.6 °F /  -3.6 °C 3.5 °F /  -15.8 °C 30.38 in /  1028.7 hPa North 4.1 mph /  6.6 km/h 6.9 mph /  11.1 km/h 38 % 0.00 in /  0 mm
23:12 25.6 °F /  -3.6 °C 2.9 °F /  -16.2 °C 30.38 in /  1028.7 hPa North 5.8 mph /  9.3 km/h 10.4 mph /  16.7 km/h 37 % 0.00 in /  0 mm
23:17 25.5 °F /  -3.6 °C 3.4 °F /  -15.9 °C 30.38 in /  1028.7 hPa NW 6.2 mph /  10 km/h 11.5 mph /  18.5 km/h 38 % 0.00 in /  0 mm
23:22 25.5 °F /  -3.6 °C 3.4 °F /  -15.9 °C 30.38 in /  1028.7 hPa NW 3.0 mph /  4.8 km/h 6.0 mph /  9.7 km/h 38 % 0.00 in /  0 mm
23:27 25.4 °F /  -3.7 °C 3.3 °F /  -15.9 °C 30.38 in /  1028.7 hPa North 6.9 mph /  11.1 km/h 13.8 mph /  22.2 km/h 38 % 0.00 in /  0 mm
23:32 25.4 °F /  -3.7 °C 4.4 °F /  -15.3 °C 30.39 in /  1029 hPa NNE 8.3 mph /  13.4 km/h 15.0 mph /  24.1 km/h 40 % 0.00 in /  0 mm
23:37 25.3 °F /  -3.7 °C 3.8 °F /  -15.7 °C 30.39 in /  1029 hPa NNW 5.5 mph /  8.9 km/h 12.7 mph /  20.4 km/h 39 % 0.00 in /  0 mm
23:42 25.3 °F /  -3.7 °C 4.3 °F /  -15.4 °C 30.39 in /  1029 hPa NNW 6.5 mph /  10.5 km/h 10.4 mph /  16.7 km/h 40 % 0.00 in /  0 mm
23:47 25.2 °F /  -3.8 °C 3.7 °F /  -15.7 °C 30.39 in /  1029 hPa North 7.0 mph /  11.3 km/h 11.5 mph /  18.5 km/h 39 % 0.00 in /  0 mm
23:53 25.2 °F /  -3.8 °C 3.7 °F /  -15.7 °C 30.40 in /  1029.3 hPa NW 6.5 mph /  10.5 km/h 10.4 mph /  16.7 km/h 39 % 0.00 in /  0 mm
23:58 25.1 °F /  -3.8 °C 4.1 °F /  -15.5 °C 30.40 in /  1029.3 hPa NNW 6.3 mph /  10.1 km/h 11.5 mph /  18.5 km/h 40 % 0.00 in /  0 mm
Crab Meadow Weather
Compliments of Weather Underground - 3 mb

Script developed by  Jim McMurry - jmcmurry@mwt.net Adapted for the template by  Wim van der Kuil - Leuven-Template.eu

Recycling: If every American home replaced just one light bulb with an ENERGY STAR qualified bulb, we would save enough energy to light more than 3 million homes for a year, more than $600 million in annual energy costs, and prevent greenhouse gases equivalent to the emissions of more than 800,000 cars.